Live-Position
3D-Globus wird geladen...
Über Starlink 3389
Group: 3 satellites
Beschreibung wird geladen...
Nächste Überflüge
Passes for default location (London). Set your location on the main map for personalized predictions.
Höhenverlauf
Loading altitude history...
No altitude history available
Zweizeiliger Elementsatz
1 51124U 22005W 26126.45578696 .00000594 00000-0 55422-4 0 9999
2 51124 53.2196 39.7990 0001811 90.8891 269.2308 15.08839769237462
Epoch: 6. Mai 2026 •
Age: 14 hours
Aktueller Status
Höhe 559.4 km
Geschwindigkeit 7.58 km/s
Subsatellitenpunkt -53.00°S,
78.63°E
Startdatum 19. Jan. 2022
Alter 4.2 years
Typ internet
Startgruppe
Falcon 9 •
Group 4-6 •
43 satellites
Starlink 3366
51104
Starlink 3350 51105
Starlink 3176 51106
Starlink 3362 51108
Starlink 3358 51109
Starlink 3344 51110
Starlink 3173 51111
Starlink 3374 51112
Starlink 3372 51113
Starlink 3375 51114
Starlink 3397 51115
Starlink 3243 51116
Starlink 3391 51117
Starlink 3394 51118
Starlink 3398 51120
Starlink 3399 51121
Starlink 3392 51123
Starlink 3387 51125
Starlink 3386 51126
Starlink 3370 51127
...and 22 more
Technische Details
Klassifizierung Payload
Masse 297.00 kg
Trockenmasse 275.00 kg
Gesamtmasse 297.00 kg
Länge 0.20 m
Durchmesser 2.80 m
Spannweite 9.00 m
Form Box + pan
Hersteller SPXS
Bus-Typ Starlink
Phasenstatus In Orbit
Besitzer/Staat SPXS/US
Most Searched
Loading...